GW6759 Weather Reports


Display with metric or nautical units.
time (UTC)temp
F
wind
direction
speed
MPH
gust
MPH
rain 1hr
in
rain 24hr
in
rain mn
in
humidity
%
barometer
mb
20260503032545 47 158 0.0 0.0 0.00 0.14 0.14 96 1015.2
20260503032043 47 158 0.0 0.0 0.00 0.14 0.14 96 1015.2
20260503031540 47 158 0.0 0.0 0.00 0.14 0.14 96 1014.9
20260503031037 47 158 0.0 0.0 0.00 0.14 0.14 96 1015.1
20260503030533 47 158 0.0 0.0 0.00 0.14 0.14 96 1015.1
20260503030031 47 158 0.0 0.0 0.00 0.14 0.14 96 1015.0
20260503025527 47 158 0.0 0.0 0.00 0.14 0.14 96 1015.0
20260503025025 48 158 0.0 0.0 0.00 0.14 0.14 96 1014.9
20260503024521 48 158 0.0 0.0 0.00 0.14 0.14 96 1014.7
20260503024018 48 158 0.0 0.0 0.00 0.14 0.14 96 1014.8
20260503023515 48 158 0.0 0.0 0.00 0.14 0.14 96 1014.8
20260503023013 48 158 0.0 0.0 0.00 0.14 0.14 96 1014.6
20260503022508 48 158 0.0 0.0 0.00 0.14 0.14 96 1014.5
20260503022003 49 158 0.0 0.0 0.00 0.14 0.14 96 1014.5
20260503021500 49 158 0.0 0.0 0.00 0.14 0.14 96 1014.5
20260503020957 49 158 0.0 0.0 0.00 0.14 0.14 96 1014.6
20260503020455 49 158 0.0 0.0 0.00 0.14 0.14 96 1014.5
20260503015951 49 158 0.0 0.0 0.00 0.14 0.14 96 1014.5
20260503015448 49 158 0.0 0.0 0.00 0.14 0.14 96 1014.5
20260503014944 49 158 0.0 0.0 0.00 0.14 0.14 96 1014.6
20260503014441 49 158 0.0 0.0 0.00 0.14 0.14 95 1014.7
20260503013939 49 158 0.0 0.0 0.00 0.14 0.14 95 1014.6
20260503013436 49 158 0.0 0.0 0.00 0.14 0.14 95 1014.3
20260503012933 49 158 0.0 0.0 0.00 0.14 0.14 95 1014.3
20260503012431 49 158 0.0 0.0 0.00 0.14 0.14 95 1014.1
20260503011927 49 158 0.0 0.0 0.00 0.14 0.14 95 1014.4
20260503011424 49 158 0.0 0.0 0.00 0.14 0.14 95 1014.3
20260503010921 49 158 0.0 0.0 0.00 0.14 0.14 95 1013.9
20260503010417 50 158 0.0 0.0 0.00 0.14 0.14 94 1014.1
20260503005914 50 158 0.0 0.0 0.00 0.14 0.14 94 1014.1
20260503005412 50 158 0.0 0.0 0.00 0.14 0.14 94 1013.9
20260503004908 50 158 0.0 0.0 0.00 0.14 0.14 94 1013.7
20260503004406 50 158 0.0 0.0 0.00 0.14 0.14 93 1013.7
20260503003903 51 158 0.0 0.0 0.00 0.14 0.14 93 1013.7
20260503003400 51 158 0.0 0.0 0.00 0.14 0.14 92 1013.7
20260503002857 51 158 0.0 0.0 0.00 0.14 0.14 92 1013.5
20260503002354 51 158 0.0 0.0 0.00 0.14 0.14 91 1013.5
20260503001850 52 158 0.0 0.0 0.00 0.14 0.14 90 1013.5
20260503001347 52 158 0.0 0.0 0.00 0.14 0.14 90 1013.3
20260503000844 53 158 0.0 0.0 0.00 0.14 0.14 90 1013.3
20260503000341 53 158 0.0 0.0 0.00 0.14 0.14 89 1013.2
20260502235838 53 158 0.0 0.0 0.00 0.14 0.14 88 1013.0
20260502235335 54 158 0.0 0.0 0.00 0.14 0.14 87 1013.2
20260502234832 54 158 0.0 0.0 0.00 0.14 0.14 86 1012.9
20260502234329 54 159 0.0 0.0 0.00 0.14 0.14 85 1012.7
20260502233826 54 159 0.0 0.0 0.00 0.14 0.14 85 1012.5
20260502233322 54 156 0.0 0.0 0.00 0.14 0.14 85 1012.6
20260502232819 55 141 0.0 0.0 0.00 0.14 0.14 86 1012.8
20260502232315 55 139 0.0 0.0 0.00 0.14 0.14 87 1012.7
20260502231812 55 139 0.0 0.0 0.00 0.14 0.14 86 1012.6
20260502231310 55 139 0.0 0.0 0.00 0.14 0.14 86 1012.7
20260502230808 55 138 0.0 0.0 0.00 0.14 0.14 86 1012.6
20260502230306 54 139 0.0 0.0 0.00 0.14 0.14 85 1012.5
20260502225802 55 140 0.0 0.0 0.00 0.14 0.14 86 1012.5
20260502225259 55 121 0.0 0.0 0.00 0.14 0.14 85 1012.4
20260502224755 55 115 0.0 0.0 0.00 0.14 0.14 85 1012.6
20260502224252 55 121 0.0 0.0 0.00 0.14 0.14 85 1012.6
20260502223749 55 128 0.0 0.0 0.00 0.14 0.14 85 1012.6
20260502223248 55 140 0.0 1.0 0.00 0.14 0.14 84 1012.6
20260502222745 55 119 0.0 0.0 0.00 0.14 0.14 84 1012.5
20260502222242 55 116 0.0 0.0 0.00 0.14 0.14 85 1012.6
20260502221737 55 93 0.0 0.0 0.00 0.14 0.14 84 1012.6
20260502221234 55 91 0.0 0.0 0.00 0.14 0.14 85 1012.5
20260502220731 55 90 0.0 0.0 0.00 0.14 0.14 85 1012.5
20260502220227 55 91 0.0 0.0 0.00 0.14 0.14 83 1012.4
20260502215724 55 173 0.0 0.0 0.00 0.14 0.14 83 1012.2
20260502215221 55 138 0.0 0.0 0.00 0.14 0.14 82 1012.2
20260502214718 55 163 0.0 1.0 0.00 0.14 0.14 82 1012.3
20260502214215 56 89 0.0 0.0 0.00 0.14 0.14 83 1012.4
20260502213713 56 113 0.0 0.0 0.00 0.14 0.14 82 1012.1
20260502213210 56 112 0.0 0.0 0.00 0.14 0.14 81 1012.0
20260502212708 56 359 0.0 0.0 0.00 0.14 0.14 80 1012.1
20260502212206 56 22 0.0 1.0 0.00 0.14 0.14 77 1012.3
20260502211702 56 33 0.0 0.0 0.00 0.14 0.14 78 1012.4
20260502211159 55 95 0.0 0.0 0.00 0.14 0.14 80 1012.2
20260502210656 55 66 0.0 0.0 0.00 0.14 0.14 79 1012.1
20260502210153 55 95 0.0 0.0 0.00 0.14 0.14 79 1012.0
20260502205650 55 80 0.0 0.0 0.00 0.14 0.14 79 1012.3
20260502205147 56 72 0.0 0.0 0.00 0.14 0.14 79 1012.2
20260502204643 56 53 1.0 1.0 0.00 0.14 0.14 77 1012.2
20260502204141 56 355 2.0 3.0 0.00 0.14 0.14 78 1012.4
20260502203638 56 41 0.0 1.0 0.00 0.14 0.14 77 1012.2
20260502203136 56 163 0.0 1.0 0.00 0.14 0.14 77 1012.4
20260502202631 56 355 2.0 3.0 0.00 0.14 0.14 77 1012.3
20260502202129 56 324 0.0 0.0 0.00 0.14 0.14 78 1012.4
20260502201625 57 38 1.0 1.0 0.00 0.14 0.14 77 1012.4
20260502201122 56 134 0.0 0.0 0.00 0.14 0.14 79 1012.3
20260502200618 56 198 1.0 1.0 0.00 0.14 0.14 76 1012.3
20260502200115 56 111 0.0 0.0 0.00 0.14 0.14 78 1012.2
20260502195614 56 6 4.0 6.0 0.00 0.14 0.14 77 1012.3
20260502195109 56 151 0.0 1.0 0.00 0.14 0.14 79 1012.5
20260502194606 56 356 3.0 3.0 0.00 0.14 0.14 78 1012.4
20260502194102 56 134 0.0 0.0 0.00 0.14 0.14 80 1012.5
20260502193600 56 77 0.0 1.0 0.00 0.14 0.14 79 1012.6
20260502193056 55 162 1.0 1.0 0.00 0.14 0.14 79 1012.7
20260502192551 55 129 1.0 1.0 0.00 0.14 0.14 80 1012.9
20260502192049 55 115 1.0 2.0 0.00 0.14 0.14 81 1012.8
20260502191546 55 152 0.0 0.0 0.00 0.14 0.14 83 1012.9
20260502191044 55 148 0.0 1.0 0.00 0.14 0.14 83 1012.9
20260502190541 55 26 2.0 3.0 0.00 0.14 0.14 80 1013.0
20260502190038 55 162 0.0 1.0 0.00 0.14 0.14 82 1012.8
20260502185538 55 71 0.0 1.0 0.00 0.14 0.14 83 1013.0
20260502185036 55 9 1.0 1.0 0.00 0.14 0.14 82 1013.1
20260502184531 54 37 0.0 0.0 0.00 0.14 0.14 84 1013.2
20260502184028 55 162 1.0 1.0 0.00 0.14 0.14 83 1013.1
20260502183524 55 108 1.0 2.0 0.00 0.14 0.14 83 1013.1
20260502183020 55 8 1.0 2.0 0.00 0.14 0.14 84 1013.2
20260502182515 54 17 1.0 3.0 0.00 0.14 0.14 85 1013.1
20260502182012 54 98 1.0 1.0 0.00 0.14 0.14 85 1013.2
20260502181510 55 359 0.0 1.0 0.00 0.14 0.14 85 1013.3
20260502181009 54 272 0.0 1.0 0.00 0.14 0.14 86 1013.3
20260502180505 54 109 1.0 1.0 0.00 0.14 0.14 86 1013.5
20260502170429 53 121 0.0 0.0 0.00 0.14 0.14 90 1013.4
20260502163913 53 73 0.0 1.0 0.00 0.14 0.14 92 1014.0
20260502163409 53 74 0.0 0.0 0.00 0.14 0.14 92 1014.1
20260502162908 52 124 0.0 0.0 0.07 0.14 0.14 92 1014.2
20260502162404 52 42 1.0 1.0 0.07 0.14 0.14 92 1014.2
20260502161901 52 42 1.0 1.0 0.00 0.13 0.13 92 1014.3
20260502161357 53 337 2.0 3.0 0.00 0.13 0.13 93 1014.4
20260502160855 52 88 0.0 0.0 0.00 0.13 0.13 92 1014.7
20260502160353 53 30 1.0 2.0 0.00 0.13 0.13 92 1014.8
20260502152328 52 73 0.0 0.0 0.00 0.12 0.12 92 1014.1
20260502151825 52 56 0.0 0.0 0.00 0.12 0.12 92 1014.2
20260502151322 52 48 0.0 1.0 0.00 0.12 0.12 92 1014.5
20260502150820 52 65 0.0 0.0 0.00 0.12 0.12 92 1014.4
20260502150316 52 10 1.0 1.0 0.00 0.12 0.12 91 1014.2
20260502130704 51 118 0.0 0.0 0.07 0.03 0.03 92 1013.7
20260502130202 52 90 0.0 0.0 0.07 0.03 0.03 92 1013.7
20260502123648 52 54 0.0 1.0 0.00 0.02 0.02 91 1013.6
20260502123145 52 114 0.0 0.0 0.00 0.02 0.02 92 1013.4
20260502122641 52 126 0.0 0.0 0.00 0.02 0.02 92 1013.2
20260502122138 52 76 0.0 0.0 0.05 0.02 0.02 92 1013.0
20260502121636 52 76 0.0 0.0 0.05 0.02 0.02 91 1013.3
20260502121133 52 76 0.0 0.0 0.00 0.01 0.01 90 1013.2
20260502120629 52 75 0.0 0.0 0.00 0.01 0.01 90 1013.2
20260502120126 52 80 0.0 0.0 0.00 0.01 0.01 90 1013.1
20260502115624 52 118 0.0 0.0 0.00 0.01 0.01 90 1013.2
20260502115119 52 123 0.0 0.0 0.00 0.01 0.01 90 1013.3
20260502114616 51 32 0.0 0.0 0.00 0.01 0.01 89 1013.3
20260502114114 52 81 0.0 0.0 0.00 0.01 0.01 90 1013.4
20260502113611 52 96 0.0 0.0 0.00 0.01 0.01 90 1013.3
20260502113109 52 75 0.0 0.0 0.00 0.01 0.01 90 1013.2
20260502112607 52 70 0.0 1.0 0.00 0.01 0.01 90 1013.4
20260502112104 52 20 1.0 2.0 0.07 0.01 0.01 90 1013.3
20260502111601 52 64 0.0 0.0 0.07 0.01 0.01 90 1013.4
20260502111058 52 128 0.0 0.0 0.00 0.00 0.00 90 1013.3
20260502110556 52 137 0.0 0.0 0.00 0.00 0.00 90 1013.6
20260502110054 52 47 0.0 0.0 0.00 0.00 0.00 90 1013.5
20260502105551 52 125 0.0 0.0 0.00 0.00 0.00 91 1013.5
20260502105048 52 78 0.0 0.0 0.00 0.00 0.00 90 1013.5
20260502104545 52 80 0.0 0.0 0.00 0.00 0.00 90 1013.3
20260502104043 53 81 0.0 0.0 0.00 0.00 0.00 89 1013.5
20260502103540 53 81 0.0 0.0 0.00 0.00 0.00 89 1013.4
20260502103038 53 81 0.0 0.0 0.00 0.00 0.00 89 1013.5
20260502102534 53 105 0.0 0.0 0.00 0.00 0.00 89 1013.8
20260502102031 53 109 0.0 0.0 0.00 0.00 0.00 90 1013.5
20260502101529 53 116 0.0 0.0 0.00 0.00 0.00 90 1013.6
20260502101027 53 135 0.0 0.0 0.00 0.00 0.00 90 1013.5
20260502100526 53 135 0.0 0.0 0.00 0.00 0.00 90 1013.8
20260502091500 53 171 0.0 0.0 0.00 0.00 0.00 91 1013.6
20260502090957 53 171 0.0 0.0 0.00 0.00 0.00 91 1013.7
20260502090454 53 171 0.0 0.0 0.00 0.00 0.00 91 1013.5
20260502071348 52 119 0.0 0.0 0.00 0.00 0.00 93 1012.4
20260502070847 52 119 0.0 0.0 0.00 0.00 0.00 93 1012.3
20260502070344 52 119 0.0 0.0 0.00 0.00 0.00 93 1012.6
20260502065843 52 119 0.0 0.0 0.00 0.00 0.00 93 1012.5
20260502065340 52 119 0.0 0.0 0.00 0.00 0.00 93 1012.6
20260502064838 52 119 0.0 0.0 0.00 0.00 0.00 93 1012.5
20260502064336 52 119 0.0 0.0 0.00 0.00 0.00 93 1012.7
20260502063833 52 119 0.0 0.0 0.00 0.00 0.00 93 1012.6
20260502063331 52 119 0.0 0.0 0.00 0.00 0.00 93 1012.7
20260502062828 52 119 0.0 0.0 0.00 0.00 0.00 92 1012.8
20260502062325 52 119 0.0 0.0 0.00 0.00 0.00 92 1012.8
20260502061824 52 119 0.0 0.0 0.00 0.00 0.00 92 1012.8
20260502061321 52 119 0.0 0.0 0.00 0.00 0.00 92 1012.8
20260502060817 52 119 0.0 0.0 0.00 0.00 0.00 92 1013.0
20260502060312 52 119 0.0 0.0 0.00 0.00 0.00 92 1013.0
20260502055810 52 119 0.0 0.0 0.00 0.00 0.00 92 1012.8
20260502055308 52 119 0.0 0.0 0.00 0.00 0.00 92 1012.9
20260502054807 52 119 0.0 0.0 0.00 0.00 0.00 92 1013.0
20260502054304 52 119 0.0 0.0 0.00 0.00 0.00 92 1012.8
20260502053802 52 119 0.0 0.0 0.00 0.00 0.00 91 1013.0
20260502053259 52 119 0.0 0.0 0.00 0.00 0.00 91 1013.2
20260502052756 52 119 0.0 0.0 0.00 0.00 0.00 91 1013.1
20260502052255 52 119 0.0 0.0 0.00 0.00 0.00 91 1013.2
20260502051752 52 119 0.0 0.0 0.00 0.00 0.00 91 1013.3
20260502051251 52 119 0.0 0.0 0.00 0.00 0.00 91 1013.2
20260502050746 52 119 0.0 0.0 0.00 0.00 0.00 91 1013.5
20260502050242 52 119 0.0 0.0 0.00 0.00 0.00 90 1013.2
20260502045740 52 119 0.0 0.0 0.00 0.00 0.00 90 1013.5
20260502045237 52 119 0.0 0.0 0.00 0.00 0.00 90 1013.5
20260502044733 52 119 0.0 0.0 0.00 0.00 0.00 89 1013.4
20260502044230 52 119 0.0 0.0 0.00 0.00 0.00 89 1013.6
20260502043727 52 119 0.0 0.0 0.00 0.00 0.00 90 1013.5
20260502043225 52 119 0.0 0.0 0.00 0.00 0.00 90 1013.8
20260502042724 52 119 0.0 0.0 0.00 0.00 0.00 90 1013.6
20260502042221 52 119 0.0 0.0 0.00 0.00 0.00 90 1013.5
20260502041719 52 119 0.0 0.0 0.00 0.00 0.00 90 1013.5
20260502041216 53 119 0.0 0.0 0.00 0.00 0.00 89 1013.7
20260502040713 53 119 0.0 0.0 0.00 0.00 0.00 89 1013.8
20260502040210 53 119 0.0 0.0 0.00 0.00 0.00 89 1013.8
20260502035706 53 119 0.0 0.0 0.00 0.01 0.01 88 1013.7
20260502035203 53 119 0.0 0.0 0.00 0.01 0.01 88 1013.7
20260502034700 53 119 0.0 0.0 0.00 0.01 0.01 87 1013.6
20260502034159 53 119 0.0 0.0 0.00 0.01 0.01 87 1013.8
20260502033656 53 119 0.0 0.0 0.00 0.01 0.01 87 1013.7
20260502033154 53 119 0.0 0.0 0.00 0.01 0.01 87 1013.7